Location: Sternwarte ZA, Rosenfeld-Brittheim
(48.2889°N, 8.6789°E)
Time: 19:42:06
(UTC+01:00)

ISS - Pass Details

Date: 07 December 2017
Orbit: 402 x 407 km, 51.6° (Epoch: 11 December)

Event Time Altitude Azimuth Distance (km) Brightness Sun altitude
Rises 18:25:15 0° 282° (WNW) 2,331 1.2 -18.1°
Reaches altitude 10° 18:27:23 10° 289° (WNW) 1,470 -0.2 -18.4°
Enters shadow 18:30:33 45° 2° (N) 568 -3.3 -18.9°
